Probability
0 0 0 0 0 0 0 0 0 0 0 0 0 0 0 0 0 0 0 0 0 0 0 0 0 0 0 0 0 0 0 0 0 0 0 0 0 0 0 0 0 0 0 0
0 0 0 0 0 0 0 0 0 0 0 0 0 0 0 0 0 0 0 0 0 0 0 0 0 0 0 0 0 0 0 0 0 0 0 0 0 0 0 0 0 0 0 0
0 0 0 0 0 0 0 0 0 0 0 0 0 0 0 0 0 0 0 0 0 0 0 0 0 0 0 0 0 0 0 0 0 0 0 0 0 0 0 0 0 0 0 0
0 0 0 0 0 0 0 0 0 0 0 0 0 0 0 0 0 0 0 0 0 0 0 0 0 0 0 0 0 0 0 0 0 0 0 0 0 0 0 0 0 0 0 0
0 0 0 0 0 0 0 0 0 0 0 0 0 0 0 0 0 0 0 0 0 0 0 0 0 0 0 0 0 0 0 0 0 0 0 0 0 0 0 0 0 0 0 0
0 0 0 0 0 0 0 0 0 0 0 0 0 0 0 0 0 0 0 0 0 0 0 0 0 0 0 0 0 0 0 0 0 0 0 0 0 0 0 0 0 0 0 0
0 0 0 0 0 0 0 0 0 0 0 0 0 0 0 0 0 0 0 0 0 0 0 0 0 0 0 0 0 0 0 0 0 0 0 0 0 0 0 0 0 0 0 0
0 0 0 0 0 0 0 0 0 0 0 0 0 0 0 0 0 0 0 0 0 0 0 0 0 0 0 0 0 0 0 0 0 0 0 0 0 0 0 0 0 0 0 0
0 0 0 0 0 0 0 0 0 0 0 0 0 0 0 0 0 0 0 0 0 0 0 0 0 0 0 0 0 0 0 0 0 0 0 0 0 0 0 0 0 0 0 0
0 0 0 0 0 0 0 0 0 0 0 0 0 0 0 0 0 0 0 0 0 0 0 0 0 0 0 0 0 0 0 0 0 0 0 0 0 0 0 0 0 0 0 0
0 0 0 0 0 0 0 0 0 0 0 0 0 0 0 0 0 0 0 0 0 0 0 0 0 0 0 0 0 0 0 0 0 0 0 0 0 0 0 0 0 0 0 0
0 0 0 0 0 0 0 0 0 0 0 0 0 0 0 0 0 0 0 0 0 0 0 0 0 0 0 0 0 0 0 0 0 0 0 0 0 0 0 0 0 0 0 0
0 0 0 0 0 0 0 0 0 0 0 0 0 0 0 0 0 0 0 0 0 0 0 0 0 0 0 0 0 0 0 0 0 0 0 0 0 0 0 0 0 0 0 0
0 0 0 0 0 0 0 0 0 0 0 0 0 0 0 0 0 0 0 0 0 0 0 0 0 0 0 0 0 0 0 0 0 0 0 0 0 0 0 0 0 0 0 0
0 0 0 0 0 0 0 0 0 0 0 0 0 0 0 0 0 0 0 0 0 0 0 0 0 0 0 0 0 0 0 0 0 0 0 0 0 0 0 0 0 0 0 0
0 0 0 0 0 0 0 0 0 0 0 0 0 0 0 0 0 0 0 0 0 0 0 0 0 0 0 0 0 0 0 0 0 0 0 0 0 0 0 0 0 0 0 0
0 0 0 0 0 0 0 0 0 0 0 0 0 0 0 0 0 0 0 0 0 0 0 0 0 0 0 0 0 0 0 0 0 0 0 0 0 0 0 0 0 0 0 0
0 0 0 0 0 0 0 0 0 0 0 0 0 0 0 0 0 0 0 0 0 0 0 0 0 0 0 0 0 0 0 0 0 0 0 0 0 0 0 0 0 0 0 0
0 0 0 0 0 0 0 0 0 0 0 0 0 0 0 0 0 0 0 0 0 0 0 0 0 0 0 0 0 0 0 0 0 0 0 0 0 0 0 0 0 0 0 0
0 0 0 0 0 0 0 0 0 0 0 0 0 0 0 0 0 0 0 0 0 0 0 0 0 0 0 0 0 0 0 0 0 0 0 0 0 0 0 0 0 0 0 0
0 0 0 0 0 0 0 0 0 0 0 0 0 0 0 0 0 0 0 0 0 0 0 0 0 0 0 0 0 0 0 0 0 0 0 0 0 0 0 0 0 0 0 0
0 0 0 0 0 0 0 0 0 0 0 0 0 0 0 0 0 0 0 0 0 0 0 0 0 0 0 0 0 0 0 0 0 0 0 0 0 0 0 0 0 0 0 0
0 0 0 0 0 0 0 0 0 0 0 0 0 0 0 0 0 0 0 0 0 0 0 0 0 0 0 0 0 0 0 0 0 0 0 0 0 0 0 0 0 0 0 0
0 0 0 0 0 0 0 0 0 0 0 0 0 0 0 0 0 0 0 0 0 0 0 0 0 0 0 0 0 0 0 0 0 0 0 0 0 0 0 0 0 0 0 0
0 0 0 0 0 0 0 0 0 0 0 0 0 0 0 0 0 0 0 0 0 0 0 0 0 0 0 0 0 0 0 0 0 0 0 0 0 0 0 0 0 0 0 0
0 0 0 0 0 0 0 0 0 0 0 0 0 0 0 0 0 0 0 0 0 0 0 0 0 0 0 0 0 0 0 0 0 0 0 0 0 0 0 0 0 0 0 0
0 0 0 0 0 0 0 0 0 0 0 0 0 0 0 0 0 0 0 0 0 0 0 0 0 0 0 0 0 0 0 0 0 0 0 0 0 0 0 0 0 0 0 0
Wind_Speed
11 12 12 14 14 12 13 14 15 17 18 17 8 4 5 5 6 7 7 6 6 7 7 8 8 8 8 8 8 8 7 7 8 7 7 7 7 8 8 8 9 9 10 11
10 11 13 18 19 16 16 15 16 16 16 6 2 4 5 6 8 9 7 6 8 9 9 8 8 9 9 9 9 8 8 9 8 8 7 7 8 8 9 9 9 9 10 11
6 6 10 12 11 9 6 5 6 8 7 4 5 6 6 7 9 8 8 9 9 9 8 8 8 8 9 9 9 9 9 9 9 8 8 8 8 9 9 9 9 10 11 11
5 5 9 9 3 0 2 5 6 7 4 5 5 5 6 8 7 8 10 10 9 8 8 8 8 8 8 9 9 10 10 10 9 8 8 9 9 10 10 9 9 9 10 11
3 5 10 9 5 2 2 4 4 4 5 6 7 8 6 6 9 9 9 9 8 7 7 8 9 9 9 9 9 10 10 10 9 8 9 10 10 11 10 9 9 9 9 10
4 5 8 5 2 3 2 3 5 6 6 8 9 8 6 8 10 10 9 8 7 7 7 8 9 9 10 10 10 11 10 10 10 9 10 11 11 11 9 8 9 8 9 9
5 5 9 3 3 1 2 3 5 6 6 7 6 7 9 10 9 8 8 8 8 7 7 8 9 9 10 11 11 11 10 10 10 10 10 11 11 10 10 9 8 9 10 9
6 7 8 2 1 1 4 5 7 7 7 8 9 9 10 10 9 9 9 8 8 8 8 9 9 10 11 12 11 11 11 11 11 10 10 10 11 10 9 9 9 9 9 9
5 6 3 2 4 5 6 7 7 7 8 8 9 10 10 9 9 9 8 8 8 8 10 10 9 9 12 13 12 12 11 11 11 11 9 9 10 11 10 8 8 8 8 9
6 5 6 8 8 7 8 8 9 8 9 8 9 9 9 8 8 8 8 8 8 9 11 12 10 10 11 13 12 12 12 11 10 10 11 10 8 8 8 8 8 8 9 9
9 9 9 5 7 9 9 9 10 9 8 7 8 9 8 8 9 8 8 7 8 9 12 13 12 12 12 12 12 12 11 10 10 10 11 10 9 8 10 9 11 12 9 8
8 7 7 8 8 9 9 9 8 8 8 7 7 8 8 8 7 8 9 9 10 11 12 14 14 14 12 11 11 11 10 10 9 9 9 10 10 11 13 16 22 23 21 18
5 6 6 8 8 7 7 8 7 7 7 8 7 7 8 8 8 9 11 11 12 13 14 15 14 14 12 11 10 10 11 12 10 10 10 10 10 11 12 13 17 20 21 22
5 5 6 7 8 7 7 7 6 6 6 7 7 8 8 10 10 11 11 12 13 15 15 14 14 14 13 11 11 11 11 14 14 11 11 11 11 11 11 12 12 10 12 18
4 4 6 7 7 6 6 5 6 7 7 8 7 8 9 11 12 13 13 13 14 14 13 14 16 16 13 12 11 11 11 10 10 11 11 11 11 11 11 12 11 11 9 9
5 5 6 6 6 6 6 6 7 8 8 9 9 10 10 11 13 14 14 12 13 14 14 14 15 15 13 11 11 10 10 19 18 13 11 11 11 11 11 11 11 10 9 7
4 5 5 6 7 7 7 7 7 8 9 10 11 11 12 13 14 14 13 12 12 14 14 14 15 13 11 10 11 10 10 13 20 14 11 11 11 11 11 11 10 10 9 9
4 5 5 6 7 8 8 8 8 10 10 11 12 12 12 13 15 16 15 14 14 14 13 13 13 13 11 11 11 10 10 10 11 12 11 11 12 11 10 10 10 11 8 7
4 6 6 7 7 8 8 10 10 10 10 10 11 11 12 13 14 14 14 14 16 17 14 11 21 17 12 13 17 9 10 12 12 12 11 15 13 10 10 10 9 8 7 5
6 7 8 9 9 9 10 10 10 10 10 9 10 12 13 13 13 13 14 14 12 11 12 15 15 11 11 12 18 10 11 12 13 12 11 10 10 10 9 9 8 7 5 3
8 9 10 10 11 10 10 10 10 11 11 9 10 12 14 14 12 12 13 14 12 11 13 20 13 10 11 15 19 12 12 12 12 11 11 10 10 10 9 8 7 5 4 3
9 9 10 10 10 11 9 8 9 11 11 11 11 11 12 13 12 11 11 11 12 17 14 10 9 16 21 23 12 11 12 12 11 10 9 9 9 9 8 8 6 4 3 2
9 9 10 10 10 11 11 9 10 10 11 12 12 12 13 12 10 11 13 9 9 18 15 10 18 28 30 16 10 11 12 11 10 9 9 9 8 8 7 7 5 3 1 1
10 10 10 10 9 11 13 12 10 9 10 11 10 11 11 10 9 7 8 16 21 23 13 17 27 28 25 11 10 10 10 10 9 9 8 8 7 6 6 5 3 2 1 1
10 10 10 10 10 9 11 10 9 9 9 8 9 9 7 6 8 9 9 11 18 20 12 16 24 25 16 10 10 11 10 9 10 9 7 7 6 6 5 4 3 2 1 1
10 9 9 9 8 8 7 7 7 7 7 8 7 6 6 6 8 9 8 10 12 18 14 11 12 15 11 11 11 11 9 9 9 7 7 7 6 5 4 3 3 2 1 2
9 8 7 7 6 6 6 6 7 7 7 8 10 8 7 7 7 8 10 9 9 10 10 10 10 10 10 10 11 10 9 8 7 6 6 5 5 4 3 3 2 1 2 2
Wind_Direction
272 285 291 287 281 272 263 261 267 276 283 294 315 4 13 4 354 337 323 328 337 332 321 317 318 320 320 316 312 310 306 298 286 279 276 276 277 275 271 263 257 249 244 242
278 281 281 278 271 265 263 260 261 272 279 296 19 18 5 354 335 314 313 332 336 328 322 321 322 321 317 312 311 313 308 300 292 288 282 278 275 274 272 267 262 255 248 246
279 298 304 276 265 250 237 247 273 281 298 5 8 6 352 330 312 319 337 337 328 322 322 320 317 315 313 311 312 311 304 299 297 292 288 282 279 279 274 269 262 256 251 246
285 304 252 251 298 306 278 286 292 292 333 23 360 341 319 308 328 344 335 326 322 321 320 315 313 312 311 313 312 307 303 299 298 296 291 287 284 280 277 273 267 262 257 251
253 268 277 278 295 8 350 298 311 343 8 353 339 325 310 337 352 334 324 319 316 316 316 316 312 312 314 310 306 304 302 299 299 299 295 292 288 282 279 276 273 268 263 257
224 236 255 284 66 50 13 289 34 20 350 338 341 321 307 336 329 319 317 315 315 316 316 311 308 312 309 304 304 302 299 299 300 299 295 292 288 286 283 276 273 272 269 260
236 247 262 288 129 66 271 299 355 345 335 336 322 296 307 323 320 315 313 312 315 315 308 303 306 308 302 300 298 297 299 300 299 297 294 292 292 290 288 284 281 279 276 269
200 220 253 143 102 310 306 333 341 344 342 329 315 312 315 317 317 316 313 311 314 309 303 303 304 304 301 299 298 300 299 298 296 294 295 296 294 293 289 287 286 285 283 280
213 223 277 35 345 339 353 348 348 340 330 322 315 313 316 316 314 310 307 307 307 304 303 301 301 300 300 301 303 303 300 298 297 296 295 294 293 294 294 290 285 284 282 282
280 287 322 332 337 352 359 345 335 330 325 321 314 315 315 313 308 304 302 306 307 307 304 303 302 301 299 302 303 301 299 298 297 298 297 295 291 289 290 289 285 284 283 283
278 291 303 316 347 346 340 334 328 325 321 318 314 310 308 305 303 303 306 305 305 303 302 303 306 303 300 299 301 300 298 297 298 295 295 295 291 287 288 278 280 287 282 276
276 311 317 319 334 337 330 326 323 320 317 315 306 301 302 300 301 303 304 305 306 303 302 303 303 300 299 300 302 304 304 301 298 296 295 293 293 292 284 283 293 293 290 286
312 335 322 316 324 330 321 320 319 313 307 306 299 295 299 298 299 301 303 305 305 302 298 299 299 300 304 307 307 303 300 300 299 296 295 293 292 295 298 298 294 293 293 292
337 334 314 318 316 317 315 313 308 302 297 294 296 300 301 299 299 300 300 298 298 296 296 298 301 303 307 307 303 297 296 299 299 295 293 292 291 292 293 296 299 294 292 292
332 333 307 305 307 312 311 308 306 300 298 298 301 301 301 301 301 299 298 296 295 295 299 303 304 304 305 302 299 298 298 296 294 291 290 290 290 289 288 288 289 291 291 290
321 311 305 309 313 315 316 311 305 300 302 301 302 301 299 296 295 296 296 298 304 305 303 301 299 300 302 301 299 298 296 298 300 296 293 292 291 290 290 290 290 290 289 288
301 300 309 312 309 306 305 303 300 299 301 300 300 301 300 300 300 300 302 304 298 295 296 296 297 298 298 298 299 298 296 296 298 297 292 291 291 291 290 289 288 289 287 283
267 271 278 284 291 298 301 300 297 296 294 295 298 299 301 304 304 303 303 304 302 298 296 294 295 301 300 299 299 296 295 294 294 294 293 292 293 292 292 291 291 291 289 286
272 277 281 284 286 288 289 290 290 287 289 293 295 297 298 296 296 299 304 306 305 304 303 297 306 311 302 301 306 298 297 297 296 294 293 297 299 295 293 293 292 290 288 280
274 277 280 281 281 278 280 282 285 289 292 293 296 297 298 298 299 301 302 298 293 291 296 303 307 303 302 303 308 301 299 298 298 298 298 298 298 298 298 297 295 292 286 274
274 277 278 278 278 275 275 280 287 292 294 293 291 292 294 297 298 298 300 300 298 296 302 310 313 306 306 307 309 305 302 300 299 300 301 302 303 303 302 300 298 294 284 271
269 271 274 276 280 283 282 282 285 290 293 291 288 288 293 297 297 295 286 288 297 307 312 307 306 307 312 314 309 305 303 301 301 303 306 307 307 308 309 308 303 297 285 271
275 277 279 281 282 286 288 286 283 283 284 284 286 288 288 289 293 296 300 299 302 311 314 305 310 314 316 318 310 306 304 305 307 309 309 308 308 310 310 310 309 307 305 303
277 278 276 277 280 284 286 284 278 274 274 276 276 276 280 289 290 282 285 305 312 313 311 309 315 317 320 317 309 307 306 308 309 308 309 310 310 310 312 316 318 322 339 44
272 273 274 275 276 276 277 280 283 281 278 277 276 275 274 274 287 298 300 302 308 314 311 312 315 318 318 310 309 309 309 309 311 314 313 314 315 317 319 321 325 340 19 59
272 272 270 266 266 271 275 277 277 278 282 288 288 285 284 285 289 295 299 301 303 311 312 309 311 314 313 311 311 311 311 312 314 315 315 317 318 320 325 332 346 11 50 75
275 273 273 274 271 266 266 267 273 279 281 287 292 293 292 293 294 297 300 303 305 306 307 308 310 311 311 313 313 312 312 312 313 314 316 318 319 323 334 347 6 40 69 84